BEIDOU-2 IGSO-6

Last updated on Wed Sep 09 2026 00:03:01 GMT+0000 (Coordinated Universal Time)

1 41434U 16021A 26250.74216728 -.00000146 00000+0 00000+0 0 9998 2 41434 60.3486 37.2240 0061237 228.2245 84.7886 1.00282889 38300
UTC large
Height (km)
Speed (km/s)
/
Latitude / Longitude
Inclination (degrees)
Orbital Period (minutes)
Azimuth
Elevation
Range (km)
Doppler Factor

Next 0 passes for location: London (51.5072 / 0.1276)

No passes found over London.
BEIDOU-2 IGSO-6